Location: Bovenkerk
(52.2915°N, 4.8336°E)
Time: 23:12:13
(UTC+00:00)

STARLINK-1138 - Pass Details

Date: 09 April 2020
Orbit: 548 x 551 km, 53.0° (Epoch: 27 May)

Event Time Altitude Azimuth Distance (km) Brightness Sun altitude
Rises 19:57:31 0° 287° (WNW) 2,726 8.8 -13.2°
Reaches altitude 10° 19:59:47 10° 283° (WNW) 1,830 7.5 -13.5°
Maximum altitude 20:03:50 54° 206° (SSW) 677 4.0 -14.0°
Enters shadow 20:06:05 24° 138° (SE) 1,162 4.7 -14.3°
